Location: Goheenville
(40.9070°N, 79.3720°W)
Time: 06:59:56
(UTC-04:00)

Daily predictions for brighter satellites

Satellite Brightness Start Highest point End
(mag) Time Altitude Azimuth Time Altitude Azimuth Time Altitude Azimuth
Cosmos 2218 Rocket 4.0 18:51:11 10° S 18:57:16 66° E 19:03:21 10° NNE
DELTA 2 R/B (1) 3.7 18:55:53 10° W 19:01:28 79° S 19:07:05 10° E
Cosmos 1626 2.3 19:01:37 10° N 19:05:16 49° E 19:08:53 10° SSE
YAOGAN 1 2.5 19:02:31 10° SSE 19:06:50 77° ENE 19:11:10 10° N
COSMOS 2428 3.9 19:02:34 10° N 19:07:02 23° NE 19:11:27 10° ESE
Cosmos 2360 Rocket 2.5 19:02:03 10° NNW 19:07:32 47° ENE 19:12:58 10° SE
Cosmos 1727 Rocket 4.1 19:01:38 10° N 19:07:54 56° E 19:14:06 10° SSE
Cosmos 2333 Rocket 3.9 19:06:59 10° NNE 19:09:58 14° NE 19:12:55 10° ENE
Cosmos 1833 4.3 19:07:15 10° S 19:12:50 60° ESE 19:18:24 10° NNE
SL-8 R/B 3.7 19:08:31 10° SW 19:13:19 72° SSE 19:18:06 10° ENE
Meteor 2-16 Rocket 4.5 19:07:48 10° S 19:13:55 85° E 19:20:04 10° N
ISS -0.8 19:12:11 10° W 19:14:21 17° SW 19:16:31 10° S
Cosmos-2242 4.0 19:10:19 10° SSW 19:14:27 51° W 19:18:37 10° N
Iridium 4 Rocket 4.5 19:10:16 10° SE 19:14:58 30° E 19:19:55 10° NNE
Cosmos 2322 Rocket 2.8 19:09:27 10° NNW 19:15:00 63° WSW 19:20:32 10° S
Tiangong 1 3.6 19:14:34 10° WSW 19:16:07 14° SSW 19:17:39 10° S
Cosmos 2219 4.4 19:12:25 10° SSE 19:16:38 21° E 19:20:52 10° NE
MTI 4.4 19:16:32 10° N 19:19:44 61° WNW 19:22:53 10° SSW
GP-B 3.0 19:15:59 10° N 19:20:28 81° E 19:24:53 10° S
Cosmos 1315 Rocket 3.3 19:17:47 10° N 19:21:36 37° ENE 19:25:24 10° SE
Cosmos 2151 2.9 19:18:31 10° N 19:22:47 64° E 19:27:00 10° SSE
Cosmos 1420 Rocket 4.4 19:22:21 10° N 19:27:25 42° ENE 19:32:24 10° SE
Meteor 2-1 Rocket 4.3 19:22:27 10° S 19:28:10 68° E 19:34:01 10° NNE
GRACE-2 3.8 19:26:27 10° SSE 19:28:56 48° E 19:31:28 10° N
Thor Agena Rocket 4.1 19:24:36 10° NNE 19:29:13 34° E 19:33:46 10° SSE
CZ-4C R/B 3.0 19:26:59 10° SSE 19:31:13 26° ESE 19:34:51 14° ENE
SKYMED 2 3.6 19:26:55 10° NNE 19:31:17 87° WNW 19:35:37 10° SSW
GRACE-1 3.6 19:29:08 10° SSE 19:31:40 58° E 19:34:13 10° N
EO 1 Del DPAF 3.8 19:28:10 10° N 19:31:59 63° WNW 19:35:47 10° SSW
APEX 3.7 19:30:51 10° S 19:33:40 26° ESE 19:34:23 23° E
Cosmos 1743 Rocket 3.9 19:31:41 10° NNW 19:36:03 69° W 19:40:25 10° S
FENGYUN 3A 3.6 19:31:08 10° SSE 19:36:26 62° ENE 19:41:47 10° N
Cosmos 2322 3.7 19:32:12 10° NNW 19:37:55 67° ENE 19:43:35 10° SSE
Delta 2 Rocket 4.0 19:35:52 10° WSW 19:39:15 33° S 19:41:01 20° SE
RESURS DK-1 2.2 19:37:28 10° NNW 19:41:38 81° ENE 19:45:45 10° SSE
Cosmos 158 Rocket 4.1 19:37:18 10° S 19:42:08 50° ESE 19:47:07 10° NNE
Cosmos 1842 Rocket 4.1 19:39:17 10° SSW 19:43:43 63° W 19:48:10 10° N
Lacrosse 5 rocket 4.0 19:42:34 10° NW 19:44:27 12° NNW 19:46:18 10° N
SJ-6B 3.6 19:45:27 26° E 19:45:48 27° ENE 19:48:59 10° NNE
Cosmos 2221 2.5 19:42:02 10° S 19:46:16 59° E 19:50:32 10° NNE
Cosmos 2058 3.3 19:42:12 10° NNW 19:46:22 68° W 19:50:28 10° S
ALOS 2.2 19:42:29 10° SSE 19:47:08 81° ENE 19:51:50 10° N
Atlas Centaur 2 3.5 19:50:43 10° WSW 19:54:39 25° S 19:58:05 15° SE
Cosmos 921 Rocket 3.0 19:51:05 10° NNW 19:55:35 90° SSW 19:59:56 10° SSE
Cosmos 2219 Rocket 2.9 19:51:44 10° N 19:56:47 33° ENE 19:58:26 28° E
Cosmos 1500 Rocket 4.4 19:53:27 10° NNW 19:57:40 51° W 20:01:50 10° SSW
Cosmos 1703 4.5 19:54:20 10° NNW 19:58:05 44° W 20:01:47 10° SSW
Resurs 01 Rocket 3.3 19:59:59 17° NE 19:59:59 17° NE 20:01:40 10° NNE
Gbstr 26 Del rocket 4.1 19:54:53 10° NW 19:59:45 44° NNE 20:02:17 29° E
Cosmos 1269 Rocket 4.0 20:01:12 10° S 20:06:22 61° ESE 20:11:35 10° NNE
Abrixas rocket 4.0 20:03:48 10° WNW 20:06:27 22° N 20:07:04 21° NNE
Cosmos 1726 2.0 20:06:06 10° S 20:09:45 65° E 20:12:41 15° NNE
Cosmos 1535 Rocket 4.4 20:04:20 10° S 20:10:24 65° E 20:16:27 10° NNE
Meteor 2-10 4.1 20:07:41 10° SSE 20:12:26 45° E 20:17:16 10° NNE
USA 267 3.4 20:09:11 27° ENE 20:12:30 49° SE 20:18:47 10° SSW
Cosmos 2333 4.1 20:07:50 10° NNW 20:13:34 69° ENE 20:16:56 25° SE
Cosmos 1908 4.2 20:09:57 10° SSW 20:13:44 48° W 20:17:33 10° N
Cosmos 2237 4.4 20:09:41 10° NNW 20:15:25 75° WSW 20:21:07 10° SSE
Cosmos 2098 Rocket 3.2 20:15:38 10° S 20:19:53 86° W 20:25:23 10° N
NOSS 0 Rocket 4.3 20:14:40 10° NNW 20:20:30 41° ENE 20:21:21 39° ENE
H-2A R/B 2.7 20:19:22 24° S 20:21:37 81° WSW 20:25:33 10° NNW
Cosmos 44 2.9 20:18:44 10° SSW 20:23:06 87° NW 20:24:23 45° NNE
Cosmos 2237 Rocket 3.1 20:22:52 10° N 20:27:16 32° NE 20:27:16 32° NE
In-Cosmos 22 Rocket 4.3 20:23:09 10° N 20:28:45 54° ENE 20:29:30 50° ESE
Sich 1 3.0 20:24:52 10° N 20:28:50 66° NE 20:28:50 66° NE
Spot 2 Rocket 4.4 20:37:27 33° NNE 20:37:27 33° NNE 20:40:37 10° N
Cosmos 1805 Rocket 4.0 20:31:49 10° NNW 20:36:09 62° W 20:39:28 17° S
SL-16 R/B 4.1 20:33:31 10° N 20:35:24 15° NNE 20:35:24 15° NNE
Aureole 2 Rocket 3.8 20:33:47 10° NNW 20:36:11 36° N 20:36:11 36° N
Meteor 2-2 Rocket 4.4 20:32:22 10° S 20:39:43 42° NE 20:43:33 10° NNE
Cosmos 1821 Rocket 4.3 20:35:35 10° SSW 20:41:39 64° W 20:47:52 10° N
Cosmos 44 Rocket 3.6 20:37:51 10° SW 20:42:30 61° NW 20:43:51 42° N
Cosmos 1110 Rocket 4.3 20:39:23 10° NNW 20:43:46 52° NNE 20:43:46 52° NNE
Cosmos 1666 Rocket 3.9 20:40:33 10° N 20:44:09 59° NNW 20:44:09 59° NNW
Cosmos 1934 Rocket 4.1 20:40:53 10° SSW 20:47:14 77° W 20:53:38 10° N
USA 234 4.1 20:46:38 33° NE 20:47:31 34° NNE 20:53:17 10° NW
DELTA 2 R/B (1) 4.0 20:42:21 10° W 20:47:45 51° SSW 20:48:16 49° S
Cosmos 2360 Rocket 4.4 20:46:45 10° NW 20:51:11 24° WSW 20:55:36 10° SSW
Cosmos 1980 4.2 20:45:54 10° NNW 20:50:12 44° NNE 20:50:12 44° NNE
COSMOS 2428 3.2 20:46:06 10° NNW 20:51:39 56° WSW 20:54:29 28° S
Cosmos 1633 Rocket 4.1 20:48:50 10° N 20:51:38 39° NNW 20:51:38 39° NNW
Cosmos 2333 Rocket 2.1 20:49:23 10° NNW 20:54:58 79° NNE 20:54:58 79° NNE
CZ-3A R/B 4.2 20:38:52 10° WNW 20:59:32 52° NNE 21:01:29 44° ENE
Cosmos 2219 3.9 20:54:43 10° SW 21:00:20 54° WNW 21:05:22 13° NNE
Envisat 4.1 21:12:32 38° NNW 21:12:32 38° NNW 21:15:37 10° NNW
Cosmos 2123 Rocket 4.4 21:04:45 10° NNW 21:10:52 60° W 21:14:34 25° SSW
Cosmos 1605 Rocket 4.2 21:09:46 10° SSW 21:15:51 67° W 21:21:55 10° N
CZ-4C R/B 3.0 21:14:17 10° WSW 21:19:18 45° NW 21:20:07 42° NNW
MOS 1-B Rocket 4.3 21:19:10 53° SW 21:19:50 56° W 21:25:42 10° NNW
BREEZE M DEB (TANK) 4.3 21:14:40 10° WNW 21:25:46 63° NW 21:25:46 63° NW
Resurs 01 Rocket 4.2 21:37:34 17° NW 21:37:34 17° NW 21:38:44 10° NNW
Cosmos 2219 Rocket 3.6 21:35:41 10° NW 21:40:13 34° W 21:40:13 34° W
USA 267 4.0 21:56:34 47° WNW 21:56:34 47° WNW 22:01:47 10° WSW
Cosmos 2237 Rocket 4.3 22:06:51 10° NW 22:09:07 22° NW 22:09:07 22° NW
